Location: Banksville Park
(38.5557°N, 75.1182°W)
Time: 04:52:30
(UTC+00:00)

Nadezhda 3 Rocket - Pass Details

Date: 19 September 2020
Orbit: 957 x 999 km, 82.9° (Epoch: 20 October)

Event Time Altitude Azimuth Distance (km) Brightness Sun altitude
Exits shadow 08:32:54 44° 305° (NW) 1,309 4.4 -26.0°
Drops below altitude 10° 08:37:56 10° 355° (N) 2,696 6.5 -25.1°
Sets 08:40:33 0° 1° (N) 3,645 7.3 -24.6°
